Date String (YYYY-MM-DD hh:mm:ss) UTC,Instrument flags,Ambient pressure (hPa),Sample flow (lpm),Bypass flow (lpm),Sample temperature (°C),Ambient temperature (°C),ASC tube jacket temperature (°C),LED temperature (°C),Box temperature (°C),Sample RH (%),Span deviation,Mass concentration (μg/m³),Mass concentration (μg/m³),Mass concentration (μg/m³)
DateTimeUTC,F1_M11,P_M11,Q1_M11,Q2_M11,T1_M11,T2_M11,T3_M11,T4_M11,T5_M11,U1_M11,ZSPAN_M11,X0_M11,X2_M11,X1_M11
2021-12-15 01:00:00,,0816.9,5.00,0.00,28.9,28.1,00.0,38.0,30.5,07.0,0001.2,0038.71,0010.01,0005.75
2021-12-15 01:01:00,,0816.9,5.01,0.00,28.9,28.1,00.0,38.0,30.5,07.0,0001.7,0039.34,0010.09,0005.77
2021-12-15 01:02:00,,0816.9,4.99,0.00,28.9,28.1,00.0,38.0,30.5,07.0,0004.3,0040.97,0010.10,0005.77
2021-12-15 01:03:00,,0817.0,5.00,0.00,28.9,28.1,00.0,38.0,30.5,07.0,0008.8,0041.67,0010.19,0005.78
2021-12-15 01:04:00,,0817.2,5.01,0.00,28.9,28.1,00.0,38.0,30.5,07.0,0011.4,0040.44,0010.10,0005.77
2021-12-15 01:05:00,,0817.4,4.99,0.00,28.9,28.1,00.0,38.0,30.5,07.0,0010.5,0039.60,0010.07,0005.79
2021-12-15 01:06:00,,0816.9,5.01,0.00,28.9,28.0,00.0,37.9,30.5,07.1,0011.4,0039.89,0010.02,0005.80
2021-12-15 01:07:00,,0817.0,4.99,0.00,28.8,28.0,00.0,37.9,30.5,07.1,0009.5,0038.18,0009.93,0005.83
2021-12-15 01:08:00,,0817.0,5.01,0.00,28.8,28.0,00.0,37.9,30.4,07.1,0010.4,0038.44,0009.81,0005.84
2021-12-15 01:09:00,,0816.9,4.99,0.00,28.8,28.0,00.0,37.9,30.4,07.1,0012.9,0038.04,0009.64,0005.84
2021-12-15 01:10:00,,0816.9,5.02,0.00,28.8,27.9,00.0,37.9,30.4,07.1,0010.8,0038.51,0009.66,0005.87
2021-12-15 01:11:00,,0817.2,4.99,0.00,28.7,27.9,00.0,37.9,30.3,07.1,0012.9,0039.61,0009.77,0005.93
2021-12-15 01:12:00,,0817.3,5.01,0.00,28.7,27.9,00.0,37.9,30.3,07.1,0011.7,0038.43,0009.80,0005.99
2021-12-15 01:13:00,,0816.9,5.00,0.00,28.7,27.0,00.0,37.8,27.0,07.1,0008.7,0039.98,0009.77,0006.04
2021-12-15 01:14:00,,0816.9,5.01,0.00,28.7,27.8,00.0,37.8,30.4,07.1,0006.0,0040.66,0009.80,0006.13
2021-12-15 01:15:00,,0816.9,5.00,0.00,28.7,27.8,00.0,37.8,30.3,07.1,0006.5,0041.78,0009.90,0006.21
2021-12-15 01:16:00,,0816.8,5.00,0.00,28.7,27.9,00.0,37.8,30.3,07.1,0000.3,0043.97,0009.96,0006.25
2021-12-15 01:17:00,,0816.9,5.00,0.00,28.7,27.9,00.0,37.8,30.3,07.2,0003.8,0044.43,0010.05,0006.29
2021-12-15 01:18:00,,0816.9,4.99,0.00,28.7,27.9,00.0,37.8,30.3,07.2,0006.0,0044.99,0010.15,0006.34
2021-12-15 01:19:00,,0816.9,5.00,0.00,28.6,27.8,00.0,37.8,30.3,07.2,0004.6,0044.70,0010.29,0006.39
2021-12-15 01:20:00,,0816.8,5.00,0.00,28.6,27.8,00.0,37.7,30.2,07.2,0005.7,0044.35,0010.41,0006.45
2021-12-15 01:21:00,,0816.9,4.99,0.00,28.6,27.8,00.0,37.7,30.2,07.2,0005.7,0045.88,0010.43,0006.49
2021-12-15 01:22:00,,0816.9,5.01,0.00,28.6,27.8,00.0,37.7,30.2,07.2,0005.5,0045.73,0010.43,0006.50
2021-12-15 01:23:00,,0816.9,5.01,0.00,28.6,27.8,00.0,37.7,30.3,07.2,0006.0,0046.69,0010.49,0006.51
2021-12-15 01:24:00,,0817.2,5.00,0.00,28.6,27.8,00.0,37.7,30.3,07.2,0001.3,0043.67,0010.55,0006.52
2021-12-15 01:25:00,,0817.0,5.00,0.00,28.6,27.8,00.0,37.7,30.3,07.2,-000.8,0043.57,0010.50,0006.51
2021-12-15 01:26:00,,0817.4,5.00,0.00,28.6,27.8,00.0,37.7,30.3,07.3,0000.4,0043.48,0010.53,0006.52
2021-12-15 01:27:00,,0817.3,5.00,0.00,28.6,27.8,00.0,37.7,30.3,07.3,0003.7,0044.91,0010.61,0006.54
2021-12-15 01:28:00,,0817.0,5.01,0.00,28.6,27.8,00.0,37.7,30.3,07.3,0000.9,0046.03,0010.71,0006.59
2021-12-15 01:29:00,,0816.9,4.99,0.00,28.6,27.9,00.0,37.7,30.3,07.3,0006.3,0045.74,0010.80,0006.60
2021-12-15 01:30:00,,0816.9,4.99,0.00,28.6,27.9,00.0,37.7,30.3,07.3,0008.9,0046.46,0010.89,0006.63
2021-12-15 01:31:00,,0817.0,5.01,0.00,28.6,27.8,00.0,37.7,30.3,07.3,0006.6,0048.51,0010.99,0006.67
2021-12-15 01:32:00,,0817.2,5.01,0.00,28.6,27.8,00.0,37.7,30.3,07.3,0010.7,0047.14,0010.95,0006.71
2021-12-15 01:33:00,,0816.8,4.99,0.00,28.6,27.8,00.0,37.7,30.4,07.2,0009.2,0047.08,0010.88,0006.71
2021-12-15 01:34:00,,0816.9,5.01,0.00,28.6,27.9,00.0,37.7,30.3,07.2,0008.2,0045.92,0010.83,0006.69
2021-12-15 01:35:00,,0816.8,5.00,0.00,28.7,27.9,00.0,37.6,30.4,07.2,0008.1,0045.91,0010.78,0006.66
2021-12-15 01:36:00,,0817.1,4.99,0.00,28.7,27.9,00.0,37.7,30.4,07.2,0008.3,0044.83,0010.76,0006.64
2021-12-15 01:37:00,,0817.1,5.02,0.00,28.7,27.9,00.0,37.7,30.4,07.2,0010.4,0043.80,0010.73,0006.60
2021-12-15 01:38:00,,0817.2,4.99,0.00,28.7,27.9,00.0,37.7,30.4,07.2,0009.0,0041.85,0010.63,0006.58
2021-12-15 01:39:00,,0816.9,5.00,0.00,28.7,27.9,00.0,37.7,30.4,07.2,0008.2,0040.64,0010.52,0006.54
2021-12-15 01:40:00,,0816.9,4.98,0.00,28.7,27.9,00.0,37.7,30.4,07.2,-004.9,0041.10,0010.41,0006.50
2021-12-15 01:41:00,,0816.8,5.01,0.00,28.7,27.9,00.0,37.7,30.4,07.1,0010.7,0040.55,0010.33,0006.47
2021-12-15 01:42:00,,0816.7,4.99,0.00,28.7,27.9,00.0,37.7,30.5,07.1,0012.3,0041.83,0010.29,0006.45
2021-12-15 01:43:00,,0816.8,5.00,0.00,28.7,27.9,00.0,37.7,30.5,07.1,0013.5,0042.99,0010.39,0006.41
2021-12-15 01:44:00,,0817.2,4.99,0.00,28.7,27.9,00.0,37.7,30.5,07.2,0012.8,0042.85,0010.53,0006.39
2021-12-15 01:45:00,,0817.0,5.02,0.00,28.7,27.9,00.0,37.7,30.5,07.1,0011.2,0043.14,0010.55,0006.39
2021-12-15 01:46:00,,0817.2,4.99,0.00,28.7,27.9,00.0,37.7,30.5,07.1,0011.6,0043.61,0010.60,0006.42
2021-12-15 01:47:00,,0816.9,5.01,0.00,28.7,27.9,00.0,37.7,30.5,07.1,0004.8,0043.45,0010.62,0006.43
2021-12-15 01:48:00,,0816.8,4.99,0.00,28.7,27.9,00.0,37.7,30.5,07.1,0010.2,0045.25,0010.66,0006.46
2021-12-15 01:49:00,,0817.0,5.00,0.00,28.7,27.9,00.0,37.7,30.5,07.2,0010.4,0045.09,0010.61,0006.45
2021-12-15 01:50:00,,0817.0,5.01,0.00,28.7,27.9,00.0,37.7,30.4,07.1,0009.1,0046.08,0010.60,0006.45
2021-12-15 01:51:00,,0817.2,5.00,0.00,28.7,27.9,00.0,37.7,30.4,07.0,-001.1,0045.34,0010.65,0006.48
2021-12-15 01:52:00,,0816.9,5.00,0.00,28.7,27.9,00.0,37.7,30.4,07.0,0001.1,0046.23,0010.63,0006.47
2021-12-15 01:53:00,,0817.2,5.00,0.00,28.7,27.9,00.0,37.7,30.4,06.9,0006.9,0047.29,0010.65,0006.46
2021-12-15 01:54:00,,0817.0,5.00,0.00,28.7,27.9,00.0,37.7,30.4,06.9,0007.0,0048.61,0010.61,0006.48
2021-12-15 01:55:00,,0816.9,5.00,0.00,28.7,27.9,00.0,37.7,30.4,06.9,0005.3,0048.35,0010.47,0006.51
2021-12-15 01:56:00,,0816.6,5.00,0.00,28.7,27.9,00.0,37.7,30.4,06.9,0012.0,0049.14,0010.48,0006.54
2021-12-15 01:57:00,,0816.6,5.00,0.00,28.7,27.8,00.0,37.7,30.4,06.9,0011.9,0050.62,0010.46,0006.56
2021-12-15 01:58:00,,0816.7,4.99,0.00,28.7,27.9,00.0,37.7,30.4,07.0,0011.7,0051.83,0010.47,0006.57
2021-12-15 01:59:00,,0816.9,4.99,0.00,28.7,27.9,00.0,37.7,30.5,07.0,0008.2,0050.45,0010.41,0006.56
